Temperature
15 14 14 14 14 14 14 14 14 14 13 13 13 13 13 13 13 13 13 12 12 12 12 12 12 12 12 12 12 12 12 12 12 12 11 11 11 11 11 11 11 11 11
14 14 14 14 14 14 14 14 14 13 13 13 13 13 13 13 13 13 12 12 12 12 12 12 12 12 12 12 12 12 12 12 11 11 11 11 11 11 11 11 11 11 11
14 14 14 14 13 13 13 13 13 13 13 13 13 13 13 13 12 12 12 12 12 12 12 12 12 12 12 12 11 11 11 11 11 11 11 11 11 11 11 11 10 10 10
13 13 13 13 13 13 13 13 13 13 13 13 13 13 12 12 12 12 12 12 12 12 12 12 11 11 11 11 11 11 11 11 11 11 11 11 11 10 10 10 10 10 10
13 13 13 13 13 13 12 12 12 12 12 12 12 12 12 12 12 12 12 12 11 11 11 11 11 11 11 11 11 11 11 11 11 11 11 10 10 10 10 10 10 10 10
13 12 12 12 12 12 12 12 12 12 12 12 12 12 12 12 12 11 11 11 11 11 11 11 11 11 11 11 11 11 11 11 11 11 10 10 10 10 10 10 10 10 9
12 12 12 12 12 12 12 12 11 11 11 12 12 11 11 11 11 11 11 11 11 11 11 10 10 10 10 10 11 11 10 10 10 10 10 10 10 10 10 10 10 9 9
12 12 11 11 11 11 11 11 11 11 11 11 11 11 11 11 11 11 11 10 10 10 10 10 10 10 10 10 10 10 10 10 10 10 10 10 10 10 10 10 9 9 9
11 11 11 11 11 10 10 10 10 10 10 11 11 11 10 10 10 10 10 10 10 10 10 10 10 10 10 10 10 10 10 10 10 9 9 9 9 9 9 9 9 9 9
11 11 10 10 10 10 10 10 10 10 10 10 10 10 10 10 10 10 10 10 10 9 9 9 9 9 9 9 9 9 9 9 9 9 9 9 9 9 9 9 9 9 8
11 10 10 10 10 10 10 10 9 9 9 9 9 9 9 9 9 9 9 9 9 9 9 9 9 9 9 9 9 9 9 9 9 9 9 9 9 9 9 8 8 8 8
10 10 10 10 9 9 9 9 9 9 9 9 8 9 9 9 9 9 9 9 8 8 8 8 8 8 8 8 8 8 8 8 8 8 8 8 8 8 8 8 8 8 8
10 10 9 9 9 9 9 9 8 8 8 8 8 8 8 8 8 8 8 8 8 8 8 8 8 8 8 8 8 8 8 8 8 8 8 8 8 8 8 7 7 7 7
9 9 9 9 8 8 8 8 8 8 8 8 8 8 8 8 8 8 8 8 8 7 7 7 7 7 7 7 7 7 7 7 7 7 7 7 7 7 7 7 7 7 7
9 9 8 8 8 8 8 8 8 8 8 8 8 7 7 7 7 7 7 7 7 7 7 7 7 7 7 7 7 7 7 7 7 7 7 7 7 7 6 6 6 6 6
8 8 8 8 8 7 7 7 7 7 7 7 7 7 7 7 7 7 7 7 7 6 6 6 6 6 6 6 6 6 7 7 7 6 6 6 6 6 6 6 6 6 6
8 8 7 7 7 7 7 7 7 7 7 7 7 6 6 6 6 6 6 6 6 6 6 6 6 6 6 6 6 6 6 6 6 6 6 6 6 6 5 5 5 5 5
8 7 7 7 7 6 6 6 6 6 6 6 6 6 6 6 6 6 6 5 5 5 5 5 5 6 5 5 5 5 5 6 6 6 5 5 5 5 5 5 5 4 4
7 7 7 6 6 6 6 6 6 6 6 6 5 5 5 5 5 5 5 5 5 5 5 5 5 5 5 5 5 5 5 5 5 5 5 5 5 5 4 4 4 4 4
6 6 6 6 6 5 5 5 5 5 5 5 5 5 5 5 4 4 4 4 4 4 4 4 4 5 5 5 5 5 5 5 5 5 5 5 4 4 4 4 4 4 3
6 6 6 5 5 5 5 5 5 5 5 4 4 4 4 4 4 4 4 4 4 4 4 4 4 4 4 4 4 4 4 4 4 4 4 4 4 4 4 4 3 3 3
5 5 5 5 5 4 4 4 4 4 4 4 4 4 4 4 4 3 3 3 3 3 3 3 3 4 4 4 4 4 4 4 4 4 4 4 4 3 3 3 3 3 3
5 5 4 4 4 4 4 4 4 4 4 4 3 3 3 3 3 3 3 3 3 3 3 3 3 3 3 3 3 3 3 3 4 4 3 3 3 3 3 3 3 2 2
4 4 4 4 3 3 3 3 3 3 3 3 3 3 3 2 2 2 2 2 2 2 2 2 2 2 2 2 2 3 3 3 3 3 3 3 3 3 2 2 2 2 2
4 4 3 3 3 3 3 3 3 3 2 2 2 2 2 2 2 2 2 2 2 2 2 2 2 2 2 2 2 2 2 2 2 2 2 2 2 2 2 2 2 2 2
3 3 3 3 3 2 2 2 2 2 2 2 2 2 2 1 1 1 1 1 1 1 1 1 1 1 1 2 2 2 2 2 2 2 2 2 2 2 2 1 1 1 1
Wind_Speed
3 3 2 2 2 2 2 2 2 2 3 3 3 2 2 2 2 1 1 1 1 1 1 2 2 1 1 1 1 1 1 1 2 1 1 1 2 3 3 4 5 7 7
2 2 2 2 2 2 1 2 2 2 2 3 2 2 2 2 2 2 2 1 1 2 2 2 2 2 2 1 1 2 2 2 3 2 1 1 2 3 3 3 4 4 5
2 2 2 2 1 1 1 1 1 1 1 2 1 2 2 2 2 2 2 2 2 2 2 2 2 2 2 1 1 2 2 2 2 2 2 1 1 2 2 2 2 2 3
2 2 2 1 1 1 1 1 1 1 1 1 2 1 1 2 2 2 2 2 2 2 2 1 2 2 2 2 2 2 2 2 2 2 2 1 1 2 2 2 2 1 1
2 2 2 2 1 1 1 1 1 1 1 1 1 1 1 1 1 1 2 2 2 1 1 2 2 2 3 3 2 2 2 1 2 2 2 1 1 1 2 2 3 2 2
2 2 1 1 2 1 1 1 1 1 1 1 1 1 1 1 1 0 1 1 2 2 2 2 2 2 2 3 3 3 4 4 3 3 2 3 3 3 2 2 2 2 2
1 1 1 1 1 1 0 1 0 0 0 1 0 1 1 1 1 1 1 1 2 2 2 2 2 1 1 2 2 3 3 4 5 4 3 4 4 4 3 2 2 3 2
2 1 1 1 1 1 1 1 1 1 0 1 1 1 1 2 2 2 2 2 1 2 2 2 2 2 2 2 2 2 2 2 3 3 3 3 2 2 3 3 4 2 1
2 1 1 1 1 1 1 1 1 1 1 1 1 1 1 2 2 2 2 1 1 2 2 2 1 1 1 2 2 2 2 2 2 3 3 2 2 1 2 2 1 2 2
2 1 1 1 2 2 2 2 1 1 2 2 1 1 2 2 2 2 2 1 1 2 2 2 2 1 1 1 2 2 2 3 2 1 1 2 2 2 3 3 4 3 2
1 1 1 1 2 2 2 2 2 2 2 2 2 2 2 2 2 2 2 1 1 2 2 2 1 1 0 1 1 2 3 3 2 3 3 2 2 2 2 2 3 3 3
1 1 1 1 2 1 1 2 2 2 2 2 2 2 2 2 2 2 3 3 2 2 2 2 1 1 2 2 2 2 3 2 1 2 2 2 2 2 2 2 2 2 3
1 1 2 2 1 2 2 2 2 2 2 2 2 2 2 1 1 2 3 3 3 2 2 2 2 2 2 2 2 3 2 1 1 2 2 2 2 2 1 1 1 1 1
1 1 1 1 1 1 1 2 2 2 2 2 2 2 2 1 1 1 1 2 2 2 1 2 2 3 2 3 2 2 2 2 2 2 2 1 1 1 1 1 1 1 1
1 1 1 1 1 1 1 2 2 3 3 3 3 3 3 3 3 2 2 2 2 2 1 1 1 2 2 1 1 2 2 2 2 1 2 2 1 2 1 1 1 2 2
1 1 1 1 1 1 1 2 3 3 4 4 5 4 3 4 4 4 4 4 4 3 2 2 3 3 3 3 3 3 3 3 3 2 2 2 2 3 2 1 2 2 2
2 1 1 1 1 1 1 1 2 2 2 3 3 4 4 5 5 5 5 4 4 3 3 4 4 4 3 3 3 3 3 3 3 3 3 3 3 3 2 2 2 1 1
1 2 2 2 2 2 2 2 2 2 1 1 2 3 4 5 5 5 4 2 3 3 4 4 4 3 3 3 3 4 3 3 3 3 3 3 3 3 3 3 3 2 2
1 1 1 1 1 2 2 2 2 2 2 1 0 0 2 3 3 4 3 2 3 4 4 4 3 3 3 3 3 3 4 4 4 4 4 3 3 2 3 3 3 4 3
1 3 2 2 2 2 1 1 2 2 1 1 1 1 1 1 1 2 2 3 3 3 3 3 3 3 3 3 3 3 3 4 4 4 4 4 3 3 3 3 3 3 3
1 2 3 2 2 2 2 2 2 2 2 2 2 2 2 2 2 3 3 3 3 3 3 3 3 3 3 2 3 3 3 4 4 4 4 4 4 3 3 3 3 3 3
1 1 2 1 1 1 2 2 2 2 2 2 2 2 3 2 2 3 3 3 3 2 2 3 3 3 3 3 3 3 3 3 4 4 4 3 3 3 3 3 3 3 3
1 1 1 1 1 2 3 2 2 2 2 2 2 2 2 2 2 3 3 3 3 2 2 2 3 3 3 3 4 3 3 3 3 3 4 4 4 4 4 4 5 4 4
1 1 1 1 2 2 2 2 2 2 2 2 2 2 2 2 3 3 3 3 3 2 2 2 2 3 2 2 2 2 2 3 3 3 3 4 4 4 4 4 5 5 5
1 1 1 1 1 2 2 2 2 2 2 2 2 2 2 3 3 3 3 3 3 3 2 2 2 2 3 3 3 3 4 4 4 3 3 3 4 5 5 5 5 5 5
1 1 1 1 1 2 2 2 2 2 3 2 2 2 2 2 3 3 3 3 2 3 3 2 2 3 3 3 3 3 4 4 4 4 4 3 4 4 4 4 5 5 5
Wind_Direction
159 167 168 170 168 167 177 179 186 185 164 170 173 169 172 158 160 165 192 194 216 246 232 218 229 225 203 209 201 222 245 178 196 237 181 161 158 166 167 171 169 172 182
144 141 150 151 152 155 175 169 169 182 165 167 178 171 170 159 164 170 205 209 225 246 240 222 227 217 214 210 192 209 221 212 184 198 193 184 188 181 176 184 172 175 177
136 132 119 126 145 155 160 132 179 199 166 163 172 173 179 174 173 188 195 214 217 228 230 229 232 211 212 209 202 217 222 221 181 173 198 203 205 185 172 191 182 170 187
137 132 126 147 163 156 154 151 201 204 183 178 178 189 203 187 171 196 201 220 232 228 225 238 242 219 210 204 211 216 213 209 185 173 188 211 216 208 167 184 200 217 215
142 144 162 171 145 124 125 156 174 197 221 217 180 188 228 216 194 189 213 217 227 244 244 241 235 214 207 204 209 205 195 207 199 177 188 206 227 212 201 196 191 208 226
131 153 151 148 139 133 148 146 142 184 199 207 206 202 226 262 313 303 267 237 239 234 240 241 238 222 198 203 208 204 202 206 202 192 206 207 221 219 208 198 187 191 245
129 119 105 129 138 137 105 36 84 236 203 173 241 214 215 224 208 206 262 266 265 261 248 248 261 231 181 183 203 213 218 221 212 201 208 221 217 212 190 198 196 185 215
140 134 139 154 159 166 168 189 254 265 261 224 238 254 252 255 226 227 242 260 262 280 276 258 250 242 193 194 195 184 214 224 222 216 212 230 233 200 185 193 197 200 211
153 172 191 172 167 181 199 234 249 264 274 257 237 242 251 252 229 224 210 229 229 261 278 284 259 259 206 209 189 206 223 231 219 200 193 201 216 192 163 138 154 169 229
163 192 208 182 189 210 208 217 239 239 249 257 261 254 251 247 234 216 201 217 227 259 270 273 263 251 260 222 201 208 240 244 220 220 231 247 222 206 203 186 184 183 192
145 183 208 202 226 222 210 226 233 226 237 250 261 265 253 240 225 208 201 217 234 252 262 261 251 251 236 235 256 218 245 258 218 202 210 223 220 212 216 205 180 172 179
132 184 229 240 248 245 214 227 231 232 232 237 237 257 260 241 226 210 207 222 252 255 257 252 234 256 245 244 262 273 278 279 226 202 200 207 211 220 223 211 194 180 182
162 218 241 250 247 216 209 227 235 228 224 234 231 240 259 253 231 214 216 228 249 267 275 283 263 252 261 251 245 260 264 245 218 210 208 215 217 211 202 196 212 191 160
191 229 239 245 302 304 233 217 219 225 231 241 241 246 258 261 247 217 205 229 236 255 286 290 277 247 240 234 248 257 238 229 214 210 211 205 187 175 187 176 185 179 155
215 237 252 235 257 273 256 249 236 228 224 228 233 235 234 247 244 257 254 240 231 229 252 268 258 247 232 230 228 231 236 245 231 215 195 193 200 189 187 163 167 179 191
230 230 235 255 242 256 272 304 304 270 252 245 238 236 248 252 256 255 260 268 259 237 235 239 240 229 222 220 220 226 226 224 220 214 206 199 197 190 189 181 179 186 204
214 206 217 244 247 256 257 265 287 309 295 272 247 237 233 240 251 254 258 264 262 245 239 236 237 235 226 216 215 219 227 226 216 206 207 205 200 193 188 186 190 199 213
226 221 225 222 234 245 251 255 258 253 270 295 271 227 227 239 244 241 244 245 254 244 239 240 241 241 233 227 224 221 223 218 210 212 208 205 202 194 191 192 194 197 213
242 214 215 229 236 245 254 254 256 258 254 247 302 242 236 240 244 241 232 237 237 248 249 245 246 242 239 237 231 220 219 216 208 205 204 203 203 200 204 204 205 207 208
236 243 244 236 236 242 249 249 251 256 254 236 238 230 231 243 240 246 244 246 245 246 248 249 248 243 241 238 232 227 226 223 209 204 203 201 202 201 210 212 210 212 211
239 236 245 240 229 232 239 240 241 241 239 234 238 232 232 230 237 247 256 261 260 259 258 257 253 248 243 234 230 231 234 231 217 209 202 201 203 209 212 211 217 216 210
235 237 235 232 243 246 255 252 246 245 244 241 244 231 231 241 245 250 259 265 269 268 251 246 249 245 232 224 224 229 235 237 224 211 207 205 204 209 211 209 212 214 208
233 238 251 254 251 264 262 251 247 246 240 227 223 214 221 241 248 253 257 268 273 269 258 239 245 242 230 223 222 218 222 229 230 217 206 209 211 210 211 214 215 214 214
228 228 237 246 244 243 245 245 246 252 249 233 224 223 231 245 254 264 269 270 264 257 246 230 239 240 239 236 234 230 225 241 240 229 213 213 215 216 213 216 218 217 215
227 231 238 244 248 252 252 252 249 253 257 247 234 232 235 244 252 261 265 264 264 256 253 244 234 240 248 243 234 240 253 253 253 245 234 220 218 218 217 217 217 218 216
232 227 235 241 250 259 260 264 263 263 264 257 245 235 237 247 251 260 265 259 258 259 254 245 241 248 267 262 253 259 260 254 255 259 245 225 220 220 221 224 221 215 211
Height
1509 1510 1511 1512 1513 1515 1516 1517 1518 1519 1519 1520 1521 1521 1522 1522 1522 1522 1523 1523 1523 1524 1524 1525 1525 1525 1525 1526 1526 1527 1527 1528 1527 1528 1528 1529 1529 1529 1530 1530 1530 1530 1530
1507 1508 1509 1510 1511 1512 1513 1514 1515 1516 1517 1518 1519 1519 1519 1520 1520 1520 1520 1521 1521 1521 1522 1522 1522 1523 1523 1523 1524 1524 1525 1525 1525 1525 1526 1527 1527 1527 1527 1528 1528 1528 1528
1504 1505 1506 1507 1509 1510 1511 1512 1513 1514 1515 1515 1516 1517 1517 1517 1517 1518 1518 1518 1519 1519 1519 1519 1520 1520 1520 1521 1521 1521 1522 1522 1523 1523 1523 1524 1525 1525 1525 1525 1526 1526 1526
1502 1503 1504 1505 1506 1507 1508 1509 1510 1511 1512 1513 1513 1514 1514 1514 1514 1515 1515 1515 1516 1516 1516 1516 1517 1517 1517 1517 1518 1518 1519 1519 1520 1520 1520 1521 1522 1522 1523 1523 1523 1523 1524
1500 1501 1502 1503 1504 1505 1506 1507 1507 1508 1509 1510 1510 1510 1511 1511 1512 1512 1512 1512 1513 1513 1513 1513 1513 1514 1514 1514 1514 1515 1516 1516 1516 1517 1517 1518 1519 1520 1520 1520 1520 1521 1521
1498 1499 1500 1501 1502 1502 1503 1504 1505 1505 1506 1506 1507 1507 1508 1508 1509 1509 1509 1509 1509 1510 1510 1510 1510 1511 1511 1511 1511 1512 1512 1513 1513 1513 1514 1515 1516 1517 1517 1517 1517 1518 1518
1496 1497 1498 1499 1499 1500 1500 1501 1501 1502 1503 1503 1504 1504 1504 1505 1505 1505 1506 1506 1506 1506 1506 1507 1507 1508 1507 1508 1508 1508 1509 1509 1510 1511 1511 1511 1512 1513 1514 1514 1514 1514 1515
1494 1495 1495 1496 1497 1497 1497 1498 1498 1499 1499 1500 1500 1501 1501 1501 1502 1502 1502 1502 1503 1503 1503 1504 1504 1504 1504 1505 1505 1505 1505 1506 1507 1507 1508 1508 1509 1510 1510 1511 1511 1511 1512
1491 1492 1493 1493 1493 1494 1494 1495 1495 1495 1496 1496 1497 1497 1497 1497 1498 1498 1498 1498 1498 1499 1500 1500 1500 1501 1501 1501 1501 1501 1501 1502 1503 1503 1504 1505 1505 1506 1507 1507 1507 1508 1508
1489 1490 1490 1490 1491 1491 1491 1491 1492 1492 1492 1493 1493 1493 1494 1494 1494 1494 1495 1494 1494 1495 1495 1496 1497 1497 1498 1498 1498 1498 1498 1498 1499 1499 1500 1500 1501 1502 1502 1503 1504 1504 1504
1486 1487 1488 1488 1488 1488 1488 1488 1488 1488 1489 1489 1489 1489 1490 1490 1490 1491 1491 1491 1491 1491 1491 1492 1493 1493 1493 1494 1494 1494 1494 1495 1495 1495 1495 1496 1497 1497 1498 1499 1500 1501 1501
1483 1484 1484 1484 1485 1485 1485 1485 1485 1485 1485 1485 1485 1486 1486 1486 1487 1487 1487 1487 1487 1487 1487 1488 1488 1489 1489 1490 1490 1490 1491 1491 1491 1491 1492 1492 1493 1494 1494 1496 1496 1497 1498
1481 1481 1481 1481 1482 1482 1481 1481 1482 1482 1481 1481 1482 1482 1482 1482 1482 1483 1483 1483 1483 1483 1483 1484 1484 1485 1485 1485 1485 1486 1486 1487 1487 1487 1488 1488 1489 1490 1491 1492 1493 1494 1494
1478 1478 1478 1478 1478 1478 1478 1478 1478 1478 1478 1478 1478 1478 1478 1478 1478 1478 1478 1479 1479 1479 1479 1480 1480 1481 1481 1481 1481 1482 1482 1483 1483 1484 1484 1485 1486 1487 1487 1488 1488 1489 1490
1475 1475 1475 1475 1474 1474 1474 1474 1474 1474 1474 1474 1474 1474 1474 1473 1474 1474 1474 1474 1474 1475 1475 1476 1476 1476 1476 1476 1477 1477 1478 1479 1479 1480 1480 1481 1482 1482 1483 1484 1485 1485 1486
1471 1471 1471 1471 1471 1470 1470 1470 1470 1470 1470 1470 1470 1470 1470 1470 1470 1470 1470 1470 1470 1471 1471 1471 1471 1472 1472 1473 1473 1473 1474 1475 1475 1476 1476 1477 1477 1478 1479 1480 1481 1481 1482
1468 1467 1467 1467 1467 1467 1466 1466 1465 1466 1466 1466 1466 1466 1466 1466 1466 1466 1466 1466 1466 1467 1467 1467 1467 1468 1468 1468 1469 1469 1470 1470 1471 1472 1472 1473 1473 1474 1475 1476 1477 1477 1478
1464 1464 1464 1463 1463 1463 1463 1463 1462 1461 1461 1460 1461 1461 1461 1461 1462 1462 1462 1462 1462 1462 1462 1463 1463 1463 1463 1464 1464 1464 1465 1465 1466 1467 1467 1468 1469 1470 1470 1471 1472 1473 1474
1460 1460 1460 1460 1459 1459 1459 1459 1458 1458 1457 1457 1457 1457 1457 1457 1458 1458 1458 1458 1457 1457 1458 1458 1459 1459 1459 1459 1460 1460 1460 1460 1461 1462 1463 1463 1464 1465 1466 1467 1468 1469 1470
1456 1456 1456 1456 1455 1455 1455 1455 1454 1454 1453 1453 1453 1453 1453 1453 1453 1453 1453 1453 1453 1453 1454 1454 1454 1454 1455 1455 1455 1455 1455 1456 1456 1457 1458 1458 1460 1461 1462 1463 1464 1465 1466
1452 1452 1452 1451 1451 1451 1451 1451 1451 1450 1450 1449 1449 1449 1449 1449 1449 1449 1449 1449 1449 1449 1449 1449 1450 1450 1450 1450 1450 1450 1450 1451 1451 1452 1452 1454 1455 1456 1457 1458 1459 1461 1462
1448 1448 1448 1447 1447 1447 1447 1447 1447 1447 1446 1446 1446 1446 1446 1445 1445 1445 1445 1445 1445 1444 1444 1445 1444 1444 1444 1444 1445 1445 1445 1445 1446 1447 1447 1448 1450 1451 1452 1453 1455 1456 1457
1444 1444 1444 1444 1444 1444 1444 1443 1443 1442 1442 1442 1442 1441 1441 1441 1441 1441 1441 1441 1440 1440 1440 1440 1440 1440 1439 1439 1440 1440 1440 1441 1441 1442 1443 1443 1444 1446 1447 1448 1450 1451 1452
1440 1440 1440 1439 1439 1439 1439 1439 1438 1438 1438 1438 1438 1437 1437 1437 1437 1437 1437 1436 1436 1436 1436 1436 1435 1435 1435 1435 1435 1435 1436 1436 1437 1437 1438 1438 1439 1440 1442 1443 1445 1446 1447
1437 1436 1436 1436 1436 1435 1435 1435 1434 1434 1434 1434 1434 1433 1433 1433 1433 1432 1432 1432 1432 1432 1432 1431 1431 1431 1431 1431 1431 1431 1431 1431 1432 1432 1433 1434 1434 1435 1437 1438 1439 1441 1442
1433 1433 1432 1432 1432 1432 1431 1431 1431 1431 1431 1430 1430 1430 1429 1429 1429 1428 1428 1427 1427 1427 1427 1427 1427 1427 1427 1426 1426 1426 1426 1426 1427 1427 1428 1428 1429 1430 1431 1433 1434 1435 1437